Location: Champs
(48.8539°N, 2.6040°E)
Time: 00:54:12
(UTC+00:00)

USA 308 - Pass Details

Date: 30 May 2022
Orbit: 549 x 558 km, 54.0° (Epoch: 14 June)

Event Time Altitude Azimuth Distance (km) Brightness Sun altitude
Exits shadow 22:43:33 32° 121° (ESE) 976 3.7 -17.9°
Drops below altitude 10° 22:46:46 10° 74° (ENE) 1,844 5.5 -18.0°
Sets 22:49:10 0° 65° (ENE) 2,745 6.5 -18.1°
